Location: ??????????
(44.2167°N, 135.5333°E)
Time: 14:57:00
(UTC+00:00)

Cosmos 1953 - Pass Details

Date: 15 June 2025
Orbit: 485 x 500 km, 82.5° (Epoch: 15 July)

Event Time Altitude Azimuth Distance (km) Brightness Sun altitude
Rises 14:10:16 0° 334° (NNW) 2,602 7.1 -21.6°
Reaches altitude 10° 14:12:56 10° 314° (NW) 1,715 5.6 -21.6°
Maximum altitude 14:15:25 17° 273° (W) 1,330 4.4 -21.7°
Enters shadow 14:16:12 16° 257° (WSW) 1,372 4.3 -21.8°
